tititudorancea.com
Station Historical Data
Daily Summary for October 29, 2018 Units:  Metric    English   Both
« Previous Day
Next Day »
Daily Weekly Monthly Yearly Custom
  High: Low: Average:
Temperature: -17.8 °C 3.7 °C 12.2 °C
Dew Point: -17.8 °C 1.7 °C 4.1 °C
Humidity: Humidity % 27 % 63 %
Wind Speed: 0 km/h 0 km/h 12.9 km/h
Wind Gust: 0 km/h - -
Wind:- - South
Pressure: 0 hPa 1014.4 hPa -
Precipitation: 0 mm    
Historical Graphs
 
 
Ararat weather Find more about Weather in Ararat, AU


 



 


Tabular Data for October 29, 2018
Time Temperature Dew Point Pressure Wind Wind Speed Wind Gust Humidity Rainfall Rate (Hourly)
-17.8 °C -17.8 °C 0 hPa Calm     Humidity % 0 mm
00:04 6.3 °C 3.8 °C 1018.8 hPa SSW 14.8 km/h 13.4 km/h 84 % 0 mm
00:09 6.3 °C 3.9 °C 1018.8 hPa SSW 16.7 km/h 13.5 km/h 85 % 0 mm
00:13 6.2 °C 3.9 °C 1018.8 hPa SSW 16.1 km/h 11.7 km/h 85 % 0 mm
00:19 6.2 °C 3.9 °C 1018.8 hPa South 18.5 km/h 8.9 km/h 85 % 0 mm
00:24 6.2 °C 3.9 °C 1018.8 hPa South 11.1 km/h 8.7 km/h 85 % 0 mm
00:29 6.3 °C 3.9 °C 1018.8 hPa South 11.3 km/h 9.2 km/h 85 % 0 mm
00:34 6.3 °C 3.9 °C 1018.8 hPa South 16.7 km/h 10.9 km/h 85 % 0 mm
00:39 6.3 °C 3.9 °C 1018.8 hPa South 9.7 km/h 4.2 km/h 85 % 0 mm
00:44 6.2 °C 3.9 °C 1018.8 hPa South 9.3 km/h 7.9 km/h 85 % 0 mm
00:49 6.2 °C 3.8 °C 1018.8 hPa South 11.1 km/h 9.5 km/h 85 % 0 mm
00:54 6.1 °C 3.8 °C 1018.8 hPa South 9.3 km/h 7.9 km/h 85 % 0 mm
00:59 6 °C 3.7 °C 1018.8 hPa South 9.3 km/h 8.5 km/h 85 % 0 mm
01:04 5.9 °C 3.6 °C 1018.8 hPa South 11.1 km/h 3.9 km/h 85 % 0 mm
01:09 5.7 °C 3.6 °C 1018.8 hPa South 9.3 km/h 5.5 km/h 86 % 0 mm
01:14 5.6 °C 3.4 °C 1018.5 hPa South 9.3 km/h 2.7 km/h 86 % 0 mm
01:19 5.5 °C 3.3 °C 1018.5 hPa South 8 km/h 5.3 km/h 86 % 0 mm
01:24 5.4 °C 3.2 °C 1018.5 hPa South 5.6 km/h 3.1 km/h 86 % 0 mm
01:29 5.3 °C 3.1 °C 1018.5 hPa South 9.7 km/h 7.1 km/h 86 % 0 mm
01:34 5.1 °C 3.1 °C 1018.5 hPa South 14.8 km/h 10.6 km/h 87 % 0 mm
01:39 5.2 °C 3.2 °C 1018.2 hPa South 14.8 km/h 7.2 km/h 87 % 0 mm
01:44 5.3 °C 3.3 °C 1018.2 hPa South 11.1 km/h 6.6 km/h 87 % 0 mm
01:49 5.3 °C 4.1 °C 1018.2 hPa South 9.3 km/h 6.3 km/h 92 % 0 mm
01:54 5.4 °C 3.4 °C 1018.2 hPa SSE 14.8 km/h 8.2 km/h 87 % 0 mm
01:59 5.4 °C 3.4 °C 1018.2 hPa South 14.8 km/h 6.8 km/h 87 % 0 mm
02:04 5.4 °C 3.2 °C 1018.2 hPa SSE 13 km/h 9.2 km/h 86 % 0 mm
02:09 5.3 °C 3.3 °C 1018.2 hPa South 13 km/h 9.5 km/h 87 % 0 mm
02:14 5.4 °C 3.4 °C 1018.2 hPa South 14.8 km/h 10.6 km/h 87 % 0 mm
02:19 5.3 °C 4.1 °C 1018.2 hPa South 14.8 km/h 10.3 km/h 92 % 0 mm
02:24 5.3 °C 4.1 °C 1018.2 hPa South 14.8 km/h 10 km/h 92 % 0 mm
02:29 5.3 °C 4.1 °C 1018.2 hPa North 14.8 km/h 10 km/h 92 % 0 mm
02:34 5.3 °C 3.3 °C 1018.2 hPa South 14.8 km/h 11.1 km/h 87 % 0 mm
02:39 5.3 °C 3.4 °C 1018.2 hPa North 11.1 km/h 8.4 km/h 88 % 0 mm
02:44 5.2 °C 3.4 °C 1018.2 hPa South 12.9 km/h 7.7 km/h 88 % 0 mm
02:49 5.2 °C 3.3 °C 1018.2 hPa South 12.9 km/h 10.1 km/h 88 % 0 mm
02:54 5.1 °C 3.3 °C 1017.8 hPa South 13 km/h 7.9 km/h 88 % 0 mm
02:59 5.1 °C 3.3 °C 1017.8 hPa South 13 km/h 11.9 km/h 88 % 0 mm
03:04 5.1 °C 3.2 °C 1017.8 hPa North 13 km/h 10.9 km/h 88 % 0 mm
03:09 5 °C 3.3 °C 1017.8 hPa South 14.8 km/h 9.7 km/h 89 % 0 mm
03:14 4.9 °C 3.3 °C 1017.8 hPa South 14.8 km/h 7.2 km/h 89 % 0 mm
03:19 4.9 °C 3.3 °C 1017.8 hPa South 14.8 km/h 9.2 km/h 89 % 0 mm
03:24 4.9 °C 3.2 °C 1017.8 hPa South 11.1 km/h 7.9 km/h 89 % 0 mm
03:29 4.9 °C 3.4 °C 1017.8 hPa South 14.8 km/h 10.1 km/h 90 % 0 mm
03:34 4.9 °C 3.4 °C 1017.8 hPa South 14.8 km/h 9.8 km/h 90 % 0 mm
03:39 4.9 °C 3.4 °C 1017.8 hPa South 18.5 km/h 6.6 km/h 90 % 0 mm
03:44 4.8 °C 3.3 °C 1017.8 hPa North 16.7 km/h 7.9 km/h 90 % 0 mm
03:49 4.8 °C 3.3 °C 1017.5 hPa South 14.8 km/h 8 km/h 90 % 0 mm
03:54 4.7 °C 3.2 °C 1017.8 hPa South 16.7 km/h 9 km/h 90 % 0 mm
03:59 4.7 °C 3.2 °C 1017.8 hPa South 13 km/h 8.2 km/h 90 % 0 mm
04:04 4.7 °C 3.2 °C 1017.8 hPa North 13 km/h 8.4 km/h 90 % 0 mm
04:09 4.6 °C 3.1 °C 1017.5 hPa South 16.7 km/h 5.8 km/h 90 % 0 mm
04:14 4.6 °C 3.1 °C 1017.5 hPa South 14.8 km/h 8 km/h 90 % 0 mm
04:19 4.6 °C 3.2 °C 1017.5 hPa South 12.9 km/h 9 km/h 91 % 0 mm
04:24 4.5 °C 3.2 °C 1017.5 hPa South 16.7 km/h 8.7 km/h 91 % 0 mm
04:29 4.4 °C 3.1 °C 1017.5 hPa South 18.5 km/h 9.7 km/h 91 % 0 mm
04:34 4.4 °C 3.1 °C 1017.5 hPa South 18.5 km/h 11.3 km/h 91 % 0 mm
04:39 4.3 °C 3 °C 1017.5 hPa South 16.7 km/h 9.3 km/h 91 % 0 mm
04:44 4.2 °C 2.9 °C 1017.5 hPa South 13 km/h 9.7 km/h 91 % 0 mm
04:49 4.2 °C 2.8 °C 1017.5 hPa South 14.8 km/h 10.1 km/h 91 % 0 mm
04:54 4.2 °C 2.8 °C 1017.5 hPa North 14.8 km/h 8.2 km/h 91 % 0 mm
04:59 4.1 °C 2.8 °C 1017.5 hPa South 11.1 km/h 7.2 km/h 91 % 0 mm
05:04 4.1 °C 2.8 °C 1017.5 hPa South 13 km/h 8 km/h 91 % 0 mm
05:09 4.1 °C 2.8 °C 1017.5 hPa North 14.8 km/h 10.1 km/h 91 % 0 mm
05:14 4.1 °C 2.8 °C 1017.5 hPa South 14.8 km/h 10.9 km/h 91 % 0 mm
05:19 4.1 °C 2.8 °C 1017.5 hPa South 18.5 km/h 11.7 km/h 91 % 0 mm
05:24 4.1 °C 2.8 °C 1017.5 hPa North 18.5 km/h 10.8 km/h 91 % 0 mm
05:29 4.1 °C 2.7 °C 1017.5 hPa South 16.7 km/h 11.1 km/h 91 % 0 mm
05:34 4 °C 2.7 °C 1017.5 hPa South 14.8 km/h 9.8 km/h 91 % 0 mm
05:39 3.9 °C 2.6 °C 1017.5 hPa South 14.8 km/h 8.5 km/h 91 % 0 mm
05:44 3.9 °C 2.6 °C 1017.5 hPa South 17.7 km/h 13.5 km/h 91 % 0 mm
05:49 3.9 °C 2.6 °C 1017.5 hPa South 16.7 km/h 10.8 km/h 91 % 0 mm
05:54 3.8 °C 2.5 °C 1017.5 hPa North 14.8 km/h 11.6 km/h 91 % 0 mm
05:59 3.9 °C 2.6 °C 1017.5 hPa South 20.4 km/h 12.1 km/h 91 % 0 mm
06:04 3.9 °C 2.6 °C 1017.5 hPa South 19.3 km/h 9.7 km/h 91 % 0 mm
06:09 3.8 °C 2.5 °C 1017.5 hPa South 16.1 km/h 11.7 km/h 91 % 0 mm
06:14 3.8 °C 2.5 °C 1017.5 hPa North 14.8 km/h 9.7 km/h 91 % 0 mm
06:19 3.8 °C 2.4 °C 1017.8 hPa South 16.7 km/h 11.1 km/h 91 % 0 mm
06:24 3.8 °C 2.4 °C 1017.8 hPa South 14.8 km/h 7.7 km/h 91 % 0 mm
06:29 3.8 °C 2.4 °C 1017.8 hPa South 13 km/h 5.8 km/h 91 % 0 mm
06:34 3.7 °C 2.4 °C 1017.8 hPa South 11.1 km/h 9.8 km/h 91 % 0 mm
06:39 3.8 °C 2.4 °C 1017.8 hPa South 14.8 km/h 8 km/h 91 % 0 mm
06:44 3.8 °C 2.4 °C 1017.8 hPa South 13 km/h 10.8 km/h 91 % 0 mm
06:49 3.8 °C 2.5 °C 1018.2 hPa South 11.3 km/h 9.8 km/h 91 % 0 mm
06:54 3.9 °C 2.6 °C 1018.2 hPa South 16.7 km/h 11.1 km/h 91 % 0 mm
06:59 3.9 °C 2.8 °C 1018.2 hPa South 16.7 km/h 11.6 km/h 92 % 0 mm
07:04 4.1 °C 2.9 °C 1018.2 hPa South 18.5 km/h 13.5 km/h 92 % 0 mm
07:09 4.3 °C 3.1 °C 1018.2 hPa South 18.5 km/h 12.2 km/h 92 % 0 mm
07:14 4.4 °C 3.3 °C 1018.2 hPa South 18.5 km/h 10.8 km/h 92 % 0 mm
07:19 4.6 °C 3.4 °C 1018.2 hPa South 18.5 km/h 10.3 km/h 92 % 0 mm
07:24 4.7 °C 3.4 °C 1018.5 hPa South 16.7 km/h 12.2 km/h 91 % 0 mm
07:29 4.9 °C 3.6 °C 1018.5 hPa South 18.5 km/h 13.4 km/h 91 % 0 mm
07:34 5.1 °C 3.7 °C 1018.5 hPa South 18.5 km/h 13.5 km/h 91 % 0 mm
07:39 5.2 °C 3.9 °C 1018.5 hPa South 14.8 km/h 13.8 km/h 91 % 0 mm
07:44 5.3 °C 4 °C 1018.5 hPa South 20.4 km/h 17.2 km/h 91 % 0 mm
07:49 5.6 °C 4.3 °C 1018.5 hPa South 18.5 km/h 12.6 km/h 91 % 0 mm
07:54 5.8 °C 4.3 °C 1018.5 hPa South 18.5 km/h 12.1 km/h 90 % 0 mm
07:59 5.9 °C 4.2 °C 1018.5 hPa South 20.4 km/h 14.2 km/h 89 % 0 mm
08:04 6.1 °C 4.4 °C 1018.5 hPa South 18.5 km/h 16.9 km/h 89 % 0 mm
08:09 6.2 °C 4.3 °C 1018.5 hPa South 22.2 km/h 12.7 km/h 88 % 0 mm
08:14 6.3 °C 4.4 °C 1018.5 hPa South 16.7 km/h 12.9 km/h 88 % 0 mm
08:19 6.5 °C 4.7 °C 1018.5 hPa South 14.8 km/h 7.7 km/h 88 % 0 mm
08:24 6.9 °C 5.1 °C 1018.8 hPa South 18.5 km/h 12.6 km/h 88 % 0 mm
08:29 7.1 °C 5.1 °C 1018.8 hPa South 18.5 km/h 14.5 km/h 87 % 0 mm
08:34 7.5 °C 5.3 °C 1018.8 hPa SSE 18.5 km/h 15.8 km/h 86 % 0 mm
08:39 7.9 °C 5.3 °C 1018.8 hPa South 22.5 km/h 14.8 km/h 84 % 0 mm
08:44 8.2 °C 5.4 °C 1018.8 hPa SSE 20.4 km/h 20.4 km/h 83 % 0 mm
08:49 8.3 °C 5.4 °C 1018.5 hPa SSE 20.9 km/h 15.8 km/h 82 % 0 mm
08:54 8.6 °C 5.6 °C 1018.8 hPa SSE 20.4 km/h 14.6 km/h 81 % 0 mm
08:59 8.9 °C 5.5 °C 1018.8 hPa SSE 33.3 km/h 20.9 km/h 79 % 0 mm
09:04 9.3 °C 5.4 °C 1018.8 hPa SSE 27.8 km/h 21.4 km/h 77 % 0 mm
09:09 9.4 °C 5.4 °C 1018.8 hPa SSE 29.6 km/h 19 km/h 76 % 0 mm
09:14 9.6 °C 5.3 °C 1018.8 hPa SSE 27.8 km/h 19.6 km/h 75 % 0 mm
09:19 9.6 °C 5.2 °C 1018.8 hPa South 27.8 km/h 18.2 km/h 74 % 0 mm
09:24 9.7 °C 5.3 °C 1018.8 hPa SSE 24.1 km/h 17.9 km/h 74 % 0 mm
09:29 10.1 °C 5.5 °C 1018.5 hPa SSE 20.4 km/h 11.3 km/h 73 % 0 mm
09:34 10.3 °C 5.5 °C 1018.5 hPa SSE 31.5 km/h 15.8 km/h 72 % 0 mm
09:39 10.5 °C 5.4 °C 1018.5 hPa SSE 29.6 km/h 17.2 km/h 71 % 0 mm
09:44 10.7 °C 5.4 °C 1018.5 hPa SSE 25.9 km/h 12.7 km/h 70 % 0 mm
09:49 11.1 °C 5.6 °C 1018.5 hPa SSE 25.9 km/h 14.6 km/h 69 % 0 mm
09:54 11.2 °C 5.5 °C 1018.5 hPa SE 31.5 km/h 22.2 km/h 68 % 0 mm
09:59 11.2 °C 5.5 °C 1018.5 hPa SSE 22.5 km/h 15.3 km/h 68 % 0 mm
10:04 11.2 °C 5.3 °C 1018.5 hPa SE 31.5 km/h 18.7 km/h 67 % 0 mm
10:09 11.3 °C 5.4 °C 1018.5 hPa SSE 27.8 km/h 15.1 km/h 67 % 0 mm
10:14 11.3 °C 5.2 °C 1018.5 hPa South 27.8 km/h 13.2 km/h 66 % 0 mm
10:19 11.7 °C 5.3 °C 1018.5 hPa SSE 27.8 km/h 19.2 km/h 65 % 0 mm
10:24 11.9 °C 5.3 °C 1018.5 hPa South 22.5 km/h 20.1 km/h 64 % 0 mm
10:29 12.1 °C 5.5 °C 1018.5 hPa SE 27.8 km/h 17.2 km/h 64 % 0 mm
10:34 12.2 °C 5.6 °C 1018.5 hPa South 20.4 km/h 12.2 km/h 64 % 0 mm
10:39 12.6 °C 5.5 °C 1018.5 hPa SSE 20.9 km/h 12.7 km/h 62 % 0 mm
10:44 12.8 °C 5.4 °C 1018.5 hPa South 20.4 km/h 14.8 km/h 61 % 0 mm
10:49 12.8 °C 5.2 °C 1018.5 hPa SE 27.8 km/h 17.7 km/h 60 % 0 mm
10:54 13.3 °C 5.9 °C 1018.5 hPa SE 27.4 km/h 16.1 km/h 61 % 0 mm
10:59 13.5 °C 5.4 °C 1018.2 hPa SSE 18.5 km/h 16.6 km/h 58 % 0 mm
11:04 13.4 °C 5.1 °C 1018.2 hPa South 25.9 km/h 16.9 km/h 57 % 0 mm
11:09 13.2 °C 5.4 °C 1018.2 hPa South 27.8 km/h 11.4 km/h 59 % 0 mm
11:14 13.3 °C 5.2 °C 1018.2 hPa SSE 22.2 km/h 13.4 km/h 58 % 0 mm
11:19 13.6 °C 5 °C 1018.2 hPa SSE 22.2 km/h 12.6 km/h 56 % 0 mm
11:24 13.9 °C 5.6 °C 1018.2 hPa SSE 20.4 km/h 13 km/h 57 % 0 mm
11:29 14.2 °C 5.6 °C 1018.2 hPa South 18.5 km/h 11.6 km/h 56 % 0 mm
11:34 14 °C 5.3 °C 1018.2 hPa SSW 29.6 km/h 14.2 km/h 56 % 0 mm
11:39 14.5 °C 5.8 °C 1018.2 hPa SSE 14.8 km/h 10.5 km/h 56 % 0 mm
11:44 14.9 °C 5.7 °C 1017.8 hPa SSE 14.8 km/h 13.5 km/h 54 % 0 mm
11:49 15.2 °C 5.7 °C 1017.8 hPa SSE 20.4 km/h 16.9 km/h 53 % 0 mm
11:54 15.1 °C 5.6 °C 1017.8 hPa SE 18.5 km/h 12.6 km/h 53 % 0 mm
11:59 15.2 °C 5.2 °C 1017.8 hPa South 33.3 km/h 16.6 km/h 51 % 0 mm
12:04 15.2 °C 5.4 °C 1017.5 hPa SSE 20.9 km/h 15.8 km/h 52 % 0 mm
12:09 15.3 °C 5.8 °C 1017.5 hPa SSE 20.4 km/h 10.8 km/h 53 % 0 mm
12:14 15.9 °C 6.1 °C 1017.5 hPa SE 14.8 km/h 10.9 km/h 52 % 0 mm
12:19 16.2 °C 5.7 °C 1017.5 hPa SSE 20.9 km/h 17.1 km/h 50 % 0 mm
12:24 15.8 °C 5.4 °C 1017.5 hPa SSW 18.5 km/h 14.5 km/h 50 % 0 mm
12:29 16 °C 6.2 °C 1017.2 hPa SSE 16.7 km/h 10.8 km/h 52 % 0 mm
12:34 16.2 °C 6.1 °C 1017.2 hPa SSE 18.5 km/h 9.7 km/h 51 % 0 mm
12:39 16.7 °C 6.2 °C 1017.2 hPa South 18.5 km/h 11.9 km/h 50 % 0 mm
12:44 16.4 °C 6 °C 1017.2 hPa SSW 17.7 km/h 12.4 km/h 50 % 0 mm
12:49 16.4 °C 5.4 °C 1017.2 hPa SE 20.4 km/h 14.6 km/h 48 % 0 mm
12:54 16.7 °C 5.3 °C 1016.8 hPa South 20.4 km/h 12.9 km/h 47 % 0 mm
12:59 16.8 °C 6.1 °C 1016.8 hPa SSE 19.3 km/h 13.2 km/h 49 % 0 mm
13:04 17.1 °C 5.7 °C 1016.8 hPa South 17.7 km/h 12.1 km/h 47 % 0 mm
13:09 17.2 °C 5.5 °C 1016.8 hPa South 18.5 km/h 9 km/h 46 % 0 mm
13:14 16.9 °C 5.5 °C 1016.8 hPa SSE 20.9 km/h 13.2 km/h 47 % 0 mm
13:19 17.2 °C 4.8 °C 1016.8 hPa SSE 18.5 km/h 13.5 km/h 44 % 0 mm
13:24 17.3 °C 5.8 °C 1016.5 hPa SE 17.7 km/h 12.9 km/h 47 % 0 mm
13:29 17.8 °C 5 °C 1016.5 hPa SE 18.5 km/h 10.6 km/h 43 % 0 mm
13:34 18 °C 5.2 °C 1016.5 hPa SSE 18.5 km/h 12.1 km/h 43 % 0 mm
13:39 18.1 °C 5.7 °C 1016.5 hPa SE 18.5 km/h 12.1 km/h 44 % 0 mm
13:44 18.5 °C 5.3 °C 1016.5 hPa SSE 14.8 km/h 12.1 km/h 42 % 0 mm
13:49 18.2 °C 6.1 °C 1016.1 hPa South 18.5 km/h 8 km/h 45 % 0 mm
13:54 18.1 °C 5.6 °C 1016.1 hPa SSW 13 km/h 12.7 km/h 44 % 0 mm
13:59 18.4 °C 5.6 °C 1016.1 hPa SE 14.8 km/h 12.7 km/h 43 % 0 mm
14:04 18.8 °C 5.6 °C 1016.1 hPa SE 18.5 km/h 11.4 km/h 42 % 0 mm
14:09 19.1 °C 4.4 °C 1016.1 hPa SE 11.1 km/h 1.9 km/h 38 % 0 mm
14:14 19.6 °C 5.2 °C 1015.8 hPa SE 14.5 km/h 6.1 km/h 39 % 0 mm
14:19 19.5 °C 4.4 °C 1015.8 hPa SE 22.2 km/h 12.9 km/h 37 % 0 mm
14:24 19.6 °C 4.9 °C 1015.8 hPa SSE 11.1 km/h 10 km/h 38 % 0 mm
14:29 19.9 °C 5.5 °C 1015.8 hPa ESE 14.8 km/h 7.9 km/h 39 % 0 mm
14:34 20 °C 5.2 °C 1015.8 hPa SE 14.8 km/h 10 km/h 38 % 0 mm
14:39 20 °C 5.2 °C 1015.8 hPa SSE 16.7 km/h 8.7 km/h 38 % 0 mm
14:44 19.9 °C 4.8 °C 1015.5 hPa SSE 14.8 km/h 4.8 km/h 37 % 0 mm
14:49 19.8 °C 4.7 °C 1015.5 hPa SSE 14.8 km/h 6.4 km/h 37 % 0 mm
14:54 20.3 °C 5.1 °C 1015.5 hPa SE 11.1 km/h 7.6 km/h 37 % 0 mm
14:59 20.2 °C 5.1 °C 1015.5 hPa South 9.7 km/h 8.5 km/h 37 % 0 mm
15:04 19.9 °C 3.9 °C 1015.5 hPa South 13 km/h 9.2 km/h 35 % 0 mm
15:09 19.8 °C 3.4 °C 1015.5 hPa SSW 7.4 km/h 6.1 km/h 34 % 0 mm
15:14 19.8 °C 4.3 °C 1015.1 hPa WSW 9.3 km/h 7.6 km/h 36 % 0 mm
15:19 20.2 °C 4.6 °C 1015.1 hPa SW 14.8 km/h 8.4 km/h 36 % 0 mm
15:24 20.3 °C 4.3 °C 1015.1 hPa South 5.6 km/h 5 km/h 35 % 0 mm
15:29 20.7 °C 4.3 °C 1015.1 hPa SSW 11.1 km/h 10.5 km/h 34 % 0 mm
15:34 20.9 °C 4.4 °C 1015.1 hPa South 14.8 km/h 10.6 km/h 34 % 0 mm
15:39 20.7 °C 3.8 °C 1015.1 hPa South 5.6 km/h 1.4 km/h 33 % 0 mm
15:44 21.2 °C 4.2 °C 1015.1 hPa South 11.1 km/h 2.4 km/h 33 % 0 mm
15:49 21.1 °C 3.8 °C 1015.1 hPa South 9.3 km/h 6.9 km/h 32 % 0 mm
15:54 21.1 °C 4.2 °C 1015.1 hPa South 9.7 km/h 7.2 km/h 33 % 0 mm
15:59 21.1 °C 4.2 °C 1014.8 hPa South 7.4 km/h 6.1 km/h 33 % 0 mm
16:04 21.5 °C 4.1 °C 1014.8 hPa South 5.6 km/h 0.5 km/h 32 % 0 mm
16:09 22.1 °C 3.2 °C 1014.8 hPa South 6.4 km/h 4.5 km/h 29 % 0 mm
16:14 21.8 °C 3.9 °C 1014.8 hPa South 3.7 km/h 1.8 km/h 31 % 0 mm
16:19 22 °C 4.1 °C 1014.8 hPa South 8 km/h 6.9 km/h 31 % 0 mm
16:24 21.9 °C 4.1 °C 1014.4 hPa South 7.4 km/h 5.8 km/h 31 % 0 mm
16:29 21.7 °C 3.4 °C 1014.4 hPa South 11.1 km/h 5.8 km/h 30 % 0 mm
16:34 21.8 °C 3.9 °C 1014.4 hPa South 8 km/h 3.1 km/h 31 % 0 mm
16:39 21.6 °C 2.8 °C 1014.4 hPa South 7.4 km/h 3.9 km/h 29 % 0 mm
16:44 21.7 °C 2.8 °C 1014.4 hPa South 16.1 km/h 7.1 km/h 29 % 0 mm
16:49 21.4 °C 3.1 °C 1014.4 hPa South 13 km/h 9.7 km/h 30 % 0 mm
16:54 21.7 °C 2.8 °C 1014.4 hPa Calm     29 % 0 mm
16:59 22 °C 2.7 °C 1014.4 hPa South 5.6 km/h 2.3 km/h 28 % 0 mm
17:04 22.2 °C 2.8 °C 1014.4 hPa South 5.6 km/h 2.7 km/h 28 % 0 mm
17:09 22.2 °C 3.3 °C 1014.4 hPa South 7.4 km/h 4.8 km/h 29 % 0 mm
17:14 22.1 °C 4.2 °C 1014.4 hPa South 5.6 km/h 4.3 km/h 31 % 0 mm
17:19 22 °C 3.1 °C 1014.4 hPa South 13 km/h 5.1 km/h 29 % 0 mm
17:24 21.8 °C 3.4 °C 1014.4 hPa South 11.1 km/h 8.2 km/h 30 % 0 mm
17:29 21.6 °C 2.8 °C 1014.4 hPa South 9.3 km/h 6.9 km/h 29 % 0 mm
17:34 21.7 °C 2.9 °C 1014.4 hPa South 9.3 km/h 7.9 km/h 29 % 0 mm
17:39 21.5 °C 1.7 °C 1014.4 hPa South 11.1 km/h 6.6 km/h 27 % 0 mm
17:44 21.6 °C 2.3 °C 1014.4 hPa South 7.4 km/h 4.2 km/h 28 % 0 mm
17:49 21.8 °C 2.9 °C 1014.4 hPa South 9.3 km/h 9 km/h 29 % 0 mm
17:54 21.8 °C 2.4 °C 1014.4 hPa South 3.7 km/h 2.1 km/h 28 % 0 mm
17:59 22.1 °C 3.2 °C 1014.4 hPa South 3.7 km/h 4.2 km/h 29 % 0 mm
18:04 22.2 °C 3.3 °C 1014.4 hPa South 8 km/h 6.4 km/h 29 % 0 mm
18:09 21.9 °C 2.6 °C 1014.4 hPa South 7.4 km/h 6.1 km/h 28 % 0 mm
18:14 21.9 °C 3.1 °C 1014.4 hPa South 11.3 km/h 5 km/h 29 % 0 mm
18:19 21.7 °C 1.8 °C 1014.4 hPa South 5.6 km/h 3.9 km/h 27 % 0 mm
18:24 21.6 °C 2.3 °C 1014.4 hPa South 5.6 km/h 3.9 km/h 28 % 0 mm
18:29 21.6 °C 2.8 °C 1014.4 hPa South 5.6 km/h 1.8 km/h 29 % 0 mm
18:34 21.7 °C 2.3 °C 1014.4 hPa South 7.4 km/h 3.2 km/h 28 % 0 mm
18:39 21.7 °C 2.8 °C 1014.4 hPa South 6.4 km/h 6.3 km/h 29 % 0 mm
18:44 21.6 °C 2.3 °C 1014.4 hPa South 5.6 km/h 3.4 km/h 28 % 0 mm
18:49 21.7 °C 2.8 °C 1014.4 hPa South 6.4 km/h 4.2 km/h 29 % 0 mm
18:54 21.7 °C 2.8 °C 1014.4 hPa South 5.6 km/h 2.7 km/h 29 % 0 mm
18:59 21.4 °C 2.7 °C 1014.4 hPa South 8 km/h 5.5 km/h 29 % 0 mm
19:04 21.2 °C 2.9 °C 1014.4 hPa South 7.4 km/h 2.9 km/h 30 % 0 mm
19:09 21.1 °C 2.8 °C 1014.4 hPa South 5.6 km/h 2.1 km/h 30 % 0 mm
19:14 20.9 °C 3.2 °C 1014.4 hPa South 5.6 km/h 2.9 km/h 31 % 0 mm
19:19 20.9 °C 3.1 °C 1014.4 hPa South 5.6 km/h 1.1 km/h 31 % 0 mm
19:24 20.8 °C 3.4 °C 1014.4 hPa South 3.7 km/h 1 km/h 32 % 0 mm
19:29 20.7 °C 3.4 °C 1014.4 hPa South 1.9 km/h 1 km/h 32 % 0 mm
19:34 20.6 °C 3.7 °C 1014.8 hPa South 1.6 km/h 1.3 km/h 33 % 0 mm
19:39 20.4 °C 3.6 °C 1014.8 hPa South 1.9 km/h 0.3 km/h 33 % 0 mm
19:44 20.2 °C 3.4 °C 1014.8 hPa South 1.6 km/h   33 % 0 mm
19:49 20 °C 4.4 °C 1014.8 hPa Calm     36 % 0 mm
19:54 19.7 °C 4.6 °C 1014.8 hPa Calm     37 % 0 mm
19:59 19.2 °C 4.6 °C 1014.8 hPa Calm     38 % 0 mm
20:04 18.7 °C 4.5 °C 1014.8 hPa South 3.7 km/h 1.8 km/h 39 % 0 mm
20:09 18.2 °C 4.4 °C 1014.8 hPa South 3.7 km/h 1.6 km/h 40 % 0 mm
20:14 17.8 °C 4.7 °C 1014.8 hPa South 1.9 km/h 0.3 km/h 42 % 0 mm
20:19 17.2 °C 4.5 °C 1015.1 hPa Calm     43 % 0 mm
20:24 16.7 °C 4.7 °C 1015.1 hPa Calm     45 % 0 mm
20:29 16.1 °C 4.2 °C 1015.1 hPa Calm     45 % 0 mm
20:34 15.8 °C 4.2 °C 1015.1 hPa Calm     46 % 0 mm
20:39 15.5 °C 4.2 °C 1015.1 hPa Calm     47 % 0 mm
20:44 15.2 °C 4.8 °C 1015.1 hPa Calm     50 % 0 mm
20:49 14.8 °C 4.4 °C 1015.1 hPa Calm     50 % 0 mm
20:54 14.4 °C 4.7 °C 1015.1 hPa Calm     52 % 0 mm
20:59 14 °C 4.8 °C 1015.1 hPa Calm     54 % 0 mm
21:04 13.7 °C 4.6 °C 1015.1 hPa Calm     54 % 0 mm
21:09 13.4 °C 4.3 °C 1015.1 hPa Calm     54 % 0 mm
21:14 13.3 °C 3.9 °C 1015.1 hPa Calm     53 % 0 mm
21:19 13.4 °C 4 °C 1015.5 hPa Calm     53 % 0 mm
21:24 13.3 °C 4.4 °C 1015.5 hPa Calm     55 % 0 mm
21:29 13 °C 4.4 °C 1015.5 hPa Calm     56 % 0 mm
21:34 12.8 °C 4.5 °C 1015.5 hPa Calm     57 % 0 mm
21:39 12.6 °C 4.6 °C 1015.5 hPa Calm     58 % 0 mm
21:44 12.4 °C 4.8 °C 1015.5 hPa Calm     60 % 0 mm
21:49 12.3 °C 4.7 °C 1015.5 hPa Calm     60 % 0 mm
21:54 12.3 °C 4.9 °C 1015.5 hPa Calm     61 % 0 mm
21:59 12.3 °C 4.9 °C 1015.5 hPa South 1.6 km/h 0.5 km/h 61 % 0 mm
22:04 12.2 °C 5.1 °C 1015.5 hPa South 6.4 km/h 5 km/h 62 % 0 mm
22:09 12.2 °C 4.7 °C 1015.5 hPa South 7.4 km/h 3.4 km/h 60 % 0 mm
22:14 12.5 °C 4.7 °C 1015.5 hPa South 3.7 km/h 2.1 km/h 59 % 0 mm
22:19 12.6 °C 4.5 °C 1015.5 hPa South 3.7 km/h 2.6 km/h 58 % 0 mm
22:24 12.7 °C 4.8 °C 1015.5 hPa South 7.4 km/h 4.8 km/h 59 % 0 mm
22:29 12.7 °C 4.9 °C 1015.8 hPa South 9.3 km/h 5.8 km/h 59 % 0 mm
22:34 12.7 °C 4.9 °C 1015.8 hPa South 5.6 km/h 2.4 km/h 59 % 0 mm
22:39 12.7 °C 4.8 °C 1015.8 hPa South 7.4 km/h 6 km/h 59 % 0 mm
22:44 12.6 °C 5.2 °C 1015.8 hPa South 6.4 km/h 6.1 km/h 61 % 0 mm
22:49 12.4 °C 5.6 °C 1015.8 hPa South 9.3 km/h 5.6 km/h 63 % 0 mm
22:54 12.3 °C 5.7 °C 1015.8 hPa South 6.4 km/h 6.1 km/h 64 % 0 mm
22:59 12.1 °C 5.7 °C 1015.5 hPa South 7.4 km/h 6 km/h 65 % 0 mm
23:04 11.9 °C 6 °C 1015.8 hPa South 8 km/h 6.9 km/h 67 % 0 mm
23:09 11.8 °C 6.1 °C 1015.5 hPa South 8 km/h 6.6 km/h 68 % 0 mm
23:14 11.6 °C 6.1 °C 1015.5 hPa South 7.4 km/h 6.3 km/h 69 % 0 mm
23:19 11.5 °C 6 °C 1015.5 hPa South 6.4 km/h 4.8 km/h 69 % 0 mm
23:24 11.4 °C 6.1 °C 1015.5 hPa South 6.4 km/h 4.5 km/h 70 % 0 mm
23:29 11.2 °C 6.2 °C 1015.5 hPa South 5.6 km/h 4.5 km/h 71 % 0 mm
23:34 11 °C 5.9 °C 1015.5 hPa South 1.9 km/h 0.5 km/h 71 % 0 mm
23:39 10.8 °C 5.7 °C 1015.5 hPa South 1.6 km/h 0.5 km/h 71 % 0 mm
23:44 10.6 °C 5.7 °C 1015.5 hPa South 1.6 km/h 0.3 km/h 72 % 0 mm
23:49 10.4 °C 5.6 °C 1015.5 hPa South 3.7 km/h 2.7 km/h 72 % 0 mm
23:54 10.3 °C 5.7 °C 1015.5 hPa South 4.8 km/h 2.4 km/h 73 % 0 mm
23:59 10.1 °C 5.5 °C 1015.5 hPa Calm     73 % 0 mm
Ararat Weather
Compliments of Weather Underground - 2.25 mb
Click here to send mail.


ABOUT

Live weather data from Ararat, Victoria, Australia, 3377
Data uploaded from Cumulus every 5 minutes to Weather Underground.
This site then downloads the raw data for formatting and display.
Metric and imperial data can be displayed. Graphs and historical data available.
Includes Sun and Moon times and rain image live from BOM.

Check out Ararat Weather on Facebook, Twitter and Google +

Help support ongoing costs by checking out the ads





Follow @AraratWeather